EW6425 Weather Reports


time (UTC)temp
F
wind
direction
speed
knots
gust
knots
rain 1hr
in
rain 24hr
in
rain mn
in
humidity
%
barometer
mb
20260505041545 46 225 3.5 8.7 0.00 0.71 0.00 80 1006.6
20260505040044 46 230 6.1 10.4 0.00 0.71 0.00 79 1006.4
20260505034543 46 197 5.2 10.4 0.00 0.72 0.00 79 1006.2
20260505033047 46 221 4.3 9.6 0.00 0.72 0.00 79 1006.0
20260505031535 46 201 7.0 12.2 0.00 0.72 0.00 78 1005.8
20260505030032 47 227 5.2 10.4 0.00 0.72 0.00 78 1005.5
20260505024551 47 223 5.2 15.6 0.00 0.72 0.72 78 1005.2
20260505023036 48 212 6.1 13.0 0.00 0.72 0.72 78 1005.1
20260505021543 49 250 7.0 20.0 0.00 0.72 0.72 78 1004.8
20260505020025 49 202 9.6 14.8 0.00 0.72 0.72 78 1004.7
20260505014526 49 233 7.8 15.6 0.00 0.72 0.72 78 1004.6
20260505013023 49 223 6.1 12.2 0.00 0.72 0.72 78 1004.5
20260505011527 49 227 6.1 12.2 0.00 0.72 0.72 78 1004.5
20260505010021 49 232 6.1 10.4 0.00 0.72 0.72 77 1004.4
20260505004531 49 208 5.2 14.8 0.00 0.73 0.72 77 1004.2
20260505003019 50 242 6.1 12.2 0.00 0.73 0.72 76 1004.2
20260505001515 50 238 8.7 14.8 0.00 0.73 0.72 75 1004.1
20260505000015 50 257 6.1 16.5 0.00 0.73 0.72 75 1003.8
20260504234512 50 248 6.1 14.8 0.00 0.77 0.72 72 1003.6
20260504233012 50 229 7.0 13.0 0.00 0.77 0.72 69 1003.4
20260504231510 51 258 7.8 16.5 0.00 0.77 0.72 64 1003.1
20260504230008 51 219 6.1 14.8 0.00 0.77 0.72 65 1002.8
20260504224508 51 230 4.3 13.9 0.00 0.81 0.72 67 1002.7
20260504223006 51 253 4.3 9.6 0.00 0.81 0.72 66 1002.5
20260504221504 52 254 3.5 8.7 0.00 0.81 0.72 64 1002.5
20260504220003 53 233 4.3 15.6 0.00 0.81 0.72 62 1002.3
20260504214501 53 209 6.1 16.5 0.00 0.90 0.72 62 1002.1
20260504213128 53 258 7.0 15.6 0.00 0.90 0.72 62 1002.0
20260504211557 53 225 7.0 19.1 0.00 0.90 0.72 63 1001.8
20260504210101 53 239 8.7 19.1 0.00 0.90 0.72 62 1001.6
20260504204604 52 230 9.6 20.0 0.00 0.94 0.72 63 1001.5
20260504203052 53 229 8.7 19.1 0.00 0.94 0.72 63 1001.3
20260504201548 52 253 6.1 22.6 0.00 0.94 0.72 64 1001.0
20260504200048 51 258 16.5 28.7 0.00 0.94 0.72 64 1001.0
20260504194546 52 275 12.2 22.6 0.00 0.99 0.72 64 1000.7
20260504193045 51 234 11.3 25.2 0.00 0.99 0.72 67 1000.6
20260504191541 51 252 11.3 26.1 0.00 0.99 0.72 70 1000.4
20260504190039 50 234 13.9 24.3 0.00 0.99 0.72 72 1000.3
20260504184536 50 266 11.3 22.6 0.00 1.03 0.72 73 1000.1
20260504183033 49 201 12.2 26.1 0.00 1.03 0.72 74 999.9
20260504181530 49 212 13.9 22.6 0.00 1.03 0.72 74 999.7
20260504180026 48 232 12.2 20.9 0.00 1.03 0.72 78 999.5
20260504174524 47 263 9.6 24.3 0.00 1.03 0.72 81 999.5
20260504173021 45 260 8.7 28.7 0.00 1.03 0.72 83 999.4
20260504171517 44 236 11.3 25.2 0.00 1.03 0.72 84 999.3
20260504081544 37 242 9.6 29.5 0.03 0.49 0.17 93 980.2
20260504050014 39 309 4.3 9.6 0.03 0.35 0.04 93 975.3
20260504044507 39 330 1.7 5.2 0.04 0.36 0.04 93 975.1
20260504043005 39 355 2.6 7.0 0.02 0.35 0.02 93 975.2